• Processing (Info)

  • MPEC 2014-U99 : 2014 UQ114

    The following Minor Planet Electronic Circular may be linked-to from your own Web pages, but must not otherwise be redistributed electronically.

    A form allowing access to any MPEC is at the bottom of this page.


    Read MPEC 2014-U98 Read MPEC 2014-U100


    M.P.E.C. 2014-U99                                Issued 2014 Oct. 27, 21:57 UT
    
         The Minor Planet Electronic Circulars contain information on unusual
             minor planets and routine data on comets.  They are published
       on behalf of Commission 20 of the International Astronomical Union by the
              Minor Planet Center, Smithsonian Astrophysical Observatory,
                              Cambridge, MA 02138, U.S.A.
    
                 Prepared using the Tamkin Foundation Computer Network
    
                                  MPC@CFA.HARVARD.EDU
                URL https://www.minorplanetcenter.net/    ISSN 1523-6714
    
                                      2014 UQ114
    
    Observations:
         K14UB4Q* C2014 10 25.57552 03 02 43.512+22 26 02.98         20.5 wLEU099F51
         K14UB4Q  C2014 10 25.58742 03 02 40.333+22 25 45.56         20.6 wLEU099F51
         K14UB4Q  C2014 10 25.61116 03 02 34.023+22 25 10.45         20.9 wLEU099F51
         K14UB4Q KC2014 10 26.29312 02 59 34.40 +22 08 07.1          20.5 VqEU099H21
         K14UB4Q KC2014 10 26.30372 02 59 31.35 +22 07 50.6          20.4 VqEU099H21
         K14UB4Q KC2014 10 26.31430 02 59 28.24 +22 07 33.5          20.4 VqEU099H21
         K14UB4Q _C2014 10 26.47411702 58 43.775+22 03 32.84         20.2 RtEU099568
         K14UB4Q _C2014 10 26.47537202 58 43.390+22 03 30.75         20.3 RtEU099568
         K14UB4Q _C2014 10 26.47663202 58 43.015+22 03 28.73         20.1 RtEU099568
         K14UB4Q KC2014 10 27.30464902 54 36.05 +21 39 33.4          20.2 VuEU099H21
         K14UB4Q KC2014 10 27.30752502 54 35.12 +21 39 27.9          20.3 VuEU099H21
         K14UB4Q KC2014 10 27.30988302 54 34.36 +21 39 23.7          20.5 VuEU099H21
         K14UB4Q KC2014 10 27.87911 02 51 31.27 +21 21 09.2          20.0  qEU099104
         K14UB4Q KC2014 10 27.88758 02 51 28.26 +21 20 52.1                qEU099104
         K14UB4Q KC2014 10 27.89532 02 51 25.68 +21 20 36.7                qEU099104
    
    Observer details:
    104 San Marcello Pistoiese.  Observer P. Bacci.  Measurers P. Bacci, L. Tesi,
        G. Fagioli.  0.60-m f/4 reflector + CCD.
    568 Mauna Kea.  Observers R. J. Wainscoat, P. Forshay.  Measurers M. Micheli,
        R. J. Wainscoat.  3.6-m Canada-France-Hawaii Telescope + CCD.
    F51 Pan-STARRS 1, Haleakala.  Observers B. Gibson, T. Goggia, N. Primak,
        A. Schultz, M. Willman.  Measurers B. Bolin, K. Chambers, S. Chastel,
        L. Denneau, H. Flewelling, M. Huber, E. Magnier, E. Schunova, R. Wainscoat,
        C. Waters.  1.8-m Ritchey-Chretien + CCD.
    H21 Astronomical Research Observatory, Westfield.  Observers R. Holmes,
        T. Linder.  Measurers L. Buzzi, S. Foglia, T. Vorobjov, T. Linder,
        R. Holmes.  0.61-m f/4.0 astrograph + CCD, 0.76-m f/3.0 astrograph + CCD,
        0.81-m f/4.0 astrograph + CCD.
    
    Orbital elements:
    2014 UQ114                                               Earth MOID = 0.0096 AU
    Epoch 2014 Dec. 9.0 TT = JDT 2457000.5                  MPC
    M 345.39474              (2000.0)            P               Q
    n   0.77074953     Peri.  316.26345     -0.99395254     -0.04075112
    a   1.1781318      Node   221.72655     +0.06872232     -0.95510843
    e   0.7747320      Incl.    8.81266     -0.08564805     -0.29344035
    P   1.28           H   22.4           G   0.15           U   9
    Residuals in seconds of arc
    141025 F51  0.2+  0.1+    141026 H21  0.3-  0.5-    141027 H21  0.2+  0.3-
    141025 F51  0.0   0.1+    141026 568  0.2+  0.0     141027 H21  0.3+  0.1-
    141025 F51  0.2-  0.0     141026 568  0.0   0.0     141027 104  0.1-  0.6+
    141026 H21  0.1-  0.5-    141026 568  0.1+  0.0     141027 104  1.0-  0.1+
    141026 H21  0.3+  0.2-    141027 H21  0.0   0.1-    141027 104  0.6+  0.0
    
    Ephemeris:
    2014 UQ114               a,e,i = 1.18, 0.77, 9                   q = 0.2654
    Date    TT    R. A. (2000) Decl.     Delta      r     Elong.  Phase     V
    2014 09 27    03 34 41.3 +24 56 26   0.6961  1.5203   126.1    32.2    23.9
    ...
    2014 10 12    03 31 42.2 +24 48 41   0.4488  1.3776   141.4    26.9    22.6
    ...
    2014 10 20    03 20 08.1 +23 56 30   0.3254  1.2923   152.0    21.2    21.6
    ...
    2014 10 26    03 00 54.6 +22 15 49   0.2382  1.2236   162.5    14.2    20.5
    2014 10 27    02 56 10.5 +21 48 51   0.2243  1.2117   164.6    12.6    20.3
    2014 10 28    02 50 49.2 +21 17 24   0.2105  1.1997   166.8    10.9    20.1
    ...
    2014 11 03    01 58 02.6 +15 18 08   0.1341  1.1251   171.9     7.1    18.8
    ...
    2014 11 11    22 40 12.7 -13 22 40   0.07965 1.0178   108.2    67.5    19.3
    ...
    2014 11 26    17 53 23.8 -31 16 09   0.2277  0.7893    26.3   146.4    26.5
    
    A. U. Tomatic                (C) Copyright 2014 MPC           M.P.E.C. 2014-U99
    

    Read MPEC 2014-U98 Read MPEC 2014-U100


    MPEC number:

    Enter an MPEC number in one of the following forms:

    • 1997-B01 (the full form)
    • J97B01 (the packed version of the full form)
    • B01 (the abbreviated form)